HK6LRQ-21 Weather Reports


time (UTC)temp
C
wind
direction
speed
KPH
gust
KPH
rain 1hr
cm
rain 24hr
cm
rain mn
cm
humidity
%
barometer
mb
20260507140233 15 253 4.8 6.4 0.00 0.00 0.00 76 1017.0
20260507134232 14 253 4.8 6.4 0.00 0.00 0.00 72 1017.0
20260507132231 14 226 1.6 4.8 0.00 0.00 0.00 75 1017.0
20260507130230 15 226 1.6 4.8 0.00 0.00 0.00 75 1017.0
20260507124229 16 226 1.6 4.8 0.00 0.00 0.00 75 1017.0
20260507122228 11 95 4.8 6.4 0.00 0.00 0.00 80 1017.0
20260507120227 11 95 4.8 6.4 0.00 0.00 0.00 80 1017.0
20260507114226 10 92 8.0 6.4 0.00 0.00 0.00 80 1017.0
20260507112225 11 92 8.0 6.4 0.00 0.00 0.00 80 1016.0
20260507110224 10 93 8.0 6.4 0.00 0.00 0.00 80 1016.0
20260507104223 10 93 8.0 6.4 0.00 0.00 0.00 80 1017.0
20260507102222 11 93 8.0 6.4 0.00 0.00 0.00 80 1016.0
20260507100222 10 93 8.0 6.4 0.00 0.00 0.00 80 1016.0
20260507094221 11 93 8.0 6.4 0.00 0.00 0.00 80 1017.0
20260507092220 10 93 8.0 6.4 0.00 0.00 0.00 80 1016.0
20260507090219 10 93 8.0 6.4 0.00 0.00 0.00 80 1016.0
20260507084218 11 93 8.0 6.4 0.00 0.00 0.00 80 1017.0
20260507082217 10 91 8.0 8.0 0.00 0.00 0.00 80 1016.0
20260507080216 10 91 8.0 8.0 0.00 0.00 0.00 80 1016.0
20260507074215 11 91 8.0 8.0 0.00 0.00 0.00 80 1017.0
20260507072214 11 91 9.7 8.0 0.00 0.00 0.00 80 1016.0
20260507070213 10 93 11.3 8.0 0.00 0.00 0.00 80 1016.0
20260507064212 11 93 11.3 8.0 0.00 0.00 0.00 80 1017.0
20260507062211 11 93 11.3 8.0 0.00 0.00 0.00 80 1017.0
20260507060210 10 93 8.0 6.4 0.00 0.00 0.00 80 1018.0
20260507054209 11 93 9.7 6.4 0.00 0.00 0.00 80 1018.0
20260507052208 10 92 11.3 8.0 0.00 0.00 0.00 80 1017.0
20260507050207 11 92 11.3 8.0 0.00 0.00 0.00 80 1017.0
20260507044206 12 92 11.3 8.0 0.00 0.00 0.00 80 1018.0
20260507042205 11 93 11.3 8.0 0.00 0.00 0.00 80 1017.0
20260507040204 12 93 11.3 8.0 0.00 0.00 0.00 80 1017.0
20260507034203 11 95 11.3 8.0 0.00 0.00 0.00 80 1018.0
20260507032202 12 95 11.3 8.0 0.00 0.00 0.00 80 1017.0
20260507030201 11 97 11.3 8.0 0.00 0.00 0.00 80 1017.0
20260507024200 11 97 11.3 8.0 0.00 0.00 0.00 80 1018.0
20260507022159 12 97 11.3 8.0 0.00 0.00 0.00 80 1016.0
20260507020158 11 98 8.0 8.0 0.00 0.00 0.00 80 1016.0
20260507014157 12 98 8.0 8.0 0.00 0.00 0.00 80 1017.0
20260507012156 13 98 9.7 8.0 0.00 0.00 0.00 80 1015.0
20260507010155 12 98 8.0 8.0 0.00 0.00 0.00 80 1015.0
20260507004153 13 98 9.7 8.0 0.00 0.00 0.00 80 1016.0
20260507002152 13 105 4.8 6.4 0.00 0.00 0.00 80 1014.0
20260507000151 14 105 4.8 6.4 0.00 0.00 0.00 80 1014.0
20260506234150 15 105 4.8 6.4 0.00 0.00 0.00 80 1014.0
20260506232149 16 105 4.8 6.4 0.00 0.00 0.00 80 1012.0
20260506230148 17 105 4.8 6.4 0.00 0.00 0.00 80 1012.0
20260506224147 16 187 1.6 4.8 0.00 0.00 0.00 80 1013.0
20260506222146 16 187 1.6 4.8 0.00 0.00 0.00 80 1011.0
20260506220145 17 187 1.6 4.8 0.00 0.00 0.00 80 1011.0
20260506214144 17 187 1.6 4.8 0.00 0.00 0.00 80 1012.0
20260506212143 18 187 1.6 4.8 0.00 0.00 0.00 80 1010.0
20260506210142 18 187 1.6 4.8 0.00 0.00 0.00 80 1010.0
20260506204141 19 187 1.6 4.8 0.03 0.00 0.00 80 1011.0
20260506202140 18 236 1.6 6.4 0.00 0.00 0.00 82 1011.0
20260506200139 18 236 1.6 6.4 0.00 0.00 0.00 83 1011.0
20260506194138 19 236 1.6 6.4 0.03 0.00 0.00 83 1012.0
20260506185921 19 253 1.6 6.4 0.00 0.00 0.00 83 1012.0
20260506183920 19 253 1.6 6.4 0.00 0.00 0.00 83 1012.0
20260506181919 19 237 3.2 8.0 0.00 0.00 0.00 83 1012.0
20260506175918 19 237 3.2 8.0 0.00 0.00 0.00 83 1013.0
20260506173917 19 234 3.2 6.4 0.00 0.00 0.00 83 1013.0
20260506171916 19 255 4.8 6.4 0.00 0.00 0.00 83 1014.0
20260506165915 19 255 4.8 6.4 0.00 0.00 0.00 83 1014.0
20260506163914 19 255 4.8 6.4 0.00 0.00 0.00 83 1014.0
20260506161913 19 251 4.8 8.0 0.00 0.00 0.00 83 1015.0
20260506155912 18 251 4.8 8.0 0.00 0.00 0.00 88 1015.0
20260506153911 18 251 4.8 8.0 0.00 0.00 0.00 81 1016.0
20260506151910 17 255 4.8 8.0 0.00 0.00 0.00 94 1016.0
20260506145909 17 255 4.8 8.0 0.00 0.00 0.00 94 1016.0
20260506143908 17 248 1.6 6.4 0.00 0.00 0.00 94 1016.0
20260506141908 17 248 3.2 6.4 0.00 0.00 0.00 94 1017.0